owner,sensor,date,latitude,longitude,vertical_datum,sea_water_temperature,qcFlag
Chevron,ioos:station:wmo:42888:1,2021-01-01T00:09:00Z,26.2946,-91.0735,7.7,22.6,11111222
Chevron,ioos:station:wmo:42888:1,2021-01-01T00:19:00Z,26.2946,-91.0734,7.9,22.6,11111222
Chevron,ioos:station:wmo:42888:1,2021-01-01T00:29:00Z,26.2946,-91.0735,8.0,22.6,11111222
Chevron,ioos:station:wmo:42888:1,2021-01-01T00:39:00Z,26.2946,-91.0735,8.2,22.6,11111222
Chevron,ioos:station:wmo:42888:1,2021-01-01T00:49:00Z,26.2946,-91.0734,7.7,22.6,11111222
Chevron,ioos:station:wmo:42888:1,2021-01-01T00:59:00Z,26.2946,-91.0735,8.3,22.6,11111222
Chevron,ioos:station:wmo:42888:1,2021-01-01T01:09:00Z,26.2946,-91.0735,7.8,22.6,11111222
Chevron,ioos:station:wmo:42888:1,2021-01-01T01:19:00Z,26.2946,-91.0735,7.9,22.6,11111222
Chevron,ioos:station:wmo:42888:1,2021-01-01T01:29:00Z,26.2946,-91.0734,7.9,22.6,11111222
Chevron,ioos:station:wmo:42888:1,2021-01-01T01:39:00Z,26.2946,-91.0735,7.8,22.6,11111222
Chevron,ioos:station:wmo:42888:1,2021-01-01T01:49:00Z,26.2946,-91.0735,7.8,22.6,11111222
Chevron,ioos:station:wmo:42888:1,2021-01-01T01:59:00Z,26.2946,-91.0735,7.7,22.6,11111222
Chevron,ioos:station:wmo:42888:1,2021-01-01T02:09:00Z,26.2946,-91.0734,7.9,22.6,11111222
Chevron,ioos:station:wmo:42888:1,2021-01-01T02:19:00Z,26.2946,-91.0735,7.8,22.6,11111222
Chevron,ioos:station:wmo:42888:1,2021-01-01T02:29:00Z,26.2946,-91.0735,8.1,22.6,11111222
Chevron,ioos:station:wmo:42888:1,2021-01-01T02:39:00Z,26.2946,-91.0734,7.6,22.6,11111222
Chevron,ioos:station:wmo:42888:1,2021-01-01T02:49:00Z,26.2946,-91.0735,7.7,22.6,11111222
Chevron,ioos:station:wmo:42888:1,2021-01-01T02:59:00Z,26.2946,-91.0734,7.8,22.6,11111222
Chevron,ioos:station:wmo:42888:1,2021-01-01T03:09:00Z,26.2946,-91.0735,8.0,22.6,11111222
Chevron,ioos:station:wmo:42888:1,2021-01-01T03:19:00Z,26.2946,-91.0735,8.0,22.6,11111222
Chevron,ioos:station:wmo:42888:1,2021-01-01T03:29:00Z,26.2946,-91.0735,7.8,22.6,11111222
Chevron,ioos:station:wmo:42888:1,2021-01-01T03:39:00Z,26.2946,-91.0734,7.8,22.6,11111222
Chevron,ioos:station:wmo:42888:1,2021-01-01T03:49:00Z,26.2946,-91.0735,8.1,22.6,11111222
Chevron,ioos:station:wmo:42888:1,2021-01-01T03:59:00Z,26.2944,-91.0736,7.9,22.6,11111222
Chevron,ioos:station:wmo:42888:1,2021-01-01T04:09:00Z,26.2944,-91.0737,8.1,22.6,11111222
Chevron,ioos:station:wmo:42888:1,2021-01-01T04:19:00Z,26.2944,-91.0737,7.9,22.6,11111222
Chevron,ioos:station:wmo:42888:1,2021-01-01T04:29:00Z,26.2944,-91.0736,7.9,22.6,11111222
Chevron,ioos:station:wmo:42888:1,2021-01-01T04:39:00Z,26.2944,-91.0736,7.8,22.6,11111222
Chevron,ioos:station:wmo:42888:1,2021-01-01T04:49:00Z,26.2944,-91.0737,8.1,22.6,11111222
Chevron,ioos:station:wmo:42888:1,2021-01-01T04:59:00Z,26.2944,-91.0737,7.9,22.7,11111222
Chevron,ioos:station:wmo:42888:1,2021-01-01T05:09:00Z,26.2944,-91.0737,8.0,22.7,11111222
Chevron,ioos:station:wmo:42888:1,2021-01-01T05:19:00Z,26.2943,-91.0739,7.8,22.7,11111222
Chevron,ioos:station:wmo:42888:1,2021-01-01T05:29:00Z,26.2943,-91.0739,7.9,22.7,11111222
Chevron,ioos:station:wmo:42888:1,2021-01-01T05:39:00Z,26.2943,-91.0739,7.9,22.7,11111222
Chevron,ioos:station:wmo:42888:1,2021-01-01T05:49:00Z,26.2943,-91.0739,7.7,22.7,11111222
Chevron,ioos:station:wmo:42888:1,2021-01-01T05:59:00Z,26.2943,-91.0739,7.9,22.7,11111222
Chevron,ioos:station:wmo:42888:1,2021-01-01T06:09:00Z,26.2943,-91.0739,7.6,22.7,11111222
Chevron,ioos:station:wmo:42888:1,2021-01-01T06:19:00Z,26.2943,-91.0739,7.6,22.7,11111222
Chevron,ioos:station:wmo:42888:1,2021-01-01T06:29:00Z,26.2943,-91.0739,7.7,22.7,11111222
Chevron,ioos:station:wmo:42888:1,2021-01-01T06:39:00Z,26.2943,-91.0739,7.6,22.7,11111222
Chevron,ioos:station:wmo:42888:1,2021-01-01T06:49:00Z,26.2943,-91.0739,7.6,22.7,11111222
Chevron,ioos:station:wmo:42888:1,2021-01-01T06:59:00Z,26.2943,-91.0739,7.8,22.7,11111222
Chevron,ioos:station:wmo:42888:1,2021-01-01T07:09:00Z,26.2943,-91.0739,7.4,22.7,11111222
Chevron,ioos:station:wmo:42888:1,2021-01-01T07:19:00Z,26.2943,-91.0739,7.6,22.7,11111222
Chevron,ioos:station:wmo:42888:1,2021-01-01T07:29:00Z,26.2943,-91.0739,7.6,22.7,11111222
Chevron,ioos:station:wmo:42888:1,2021-01-01T07:39:00Z,26.2943,-91.0739,7.6,22.7,11111222
Chevron,ioos:station:wmo:42888:1,2021-01-01T07:49:00Z,26.2943,-91.0739,7.7,22.7,11111222
Chevron,ioos:station:wmo:42888:1,2021-01-01T07:59:00Z,26.2942,-91.0739,7.7,22.7,11111222
Chevron,ioos:station:wmo:42888:1,2021-01-01T08:09:00Z,26.2942,-91.0739,7.7,22.7,11111222
Chevron,ioos:station:wmo:42888:1,2021-01-01T08:19:00Z,26.2943,-91.0739,7.7,22.7,11111222
Chevron,ioos:station:wmo:42888:1,2021-01-01T08:29:00Z,26.2943,-91.0739,7.6,22.7,11111222
Chevron,ioos:station:wmo:42888:1,2021-01-01T08:39:00Z,26.2943,-91.0739,7.5,22.7,11111222
Chevron,ioos:station:wmo:42888:1,2021-01-01T08:49:00Z,26.2943,-91.0739,7.6,22.7,11111222
Chevron,ioos:station:wmo:42888:1,2021-01-01T08:59:00Z,26.2943,-91.0739,7.7,22.7,11111222
Chevron,ioos:station:wmo:42888:1,2021-01-01T09:09:00Z,26.2943,-91.0739,7.9,22.7,11111222
Chevron,ioos:station:wmo:42888:1,2021-01-01T09:19:00Z,26.2943,-91.0739,7.9,22.7,11111222
Chevron,ioos:station:wmo:42888:1,2021-01-01T09:29:00Z,26.2943,-91.0739,7.8,22.7,11111222
Chevron,ioos:station:wmo:42888:1,2021-01-01T09:39:00Z,26.2943,-91.0739,7.6,22.7,11111222
Chevron,ioos:station:wmo:42888:1,2021-01-01T09:49:00Z,26.2944,-91.0739,7.8,22.7,11111222
Chevron,ioos:station:wmo:42888:1,2021-01-01T09:59:00Z,26.2944,-91.0740,7.8,22.7,11111222
Chevron,ioos:station:wmo:42888:1,2021-01-01T10:09:00Z,26.2943,-91.0739,8.0,22.7,11111222
Chevron,ioos:station:wmo:42888:1,2021-01-01T10:19:00Z,26.2943,-91.0739,7.5,22.7,11111222
Chevron,ioos:station:wmo:42888:1,2021-01-01T10:29:00Z,26.2943,-91.0739,8.1,22.7,11111222
Chevron,ioos:station:wmo:42888:1,2021-01-01T10:39:00Z,26.2943,-91.0739,7.7,22.7,11111222
Chevron,ioos:station:wmo:42888:1,2021-01-01T10:49:00Z,26.2943,-91.0739,7.8,22.7,11111222
Chevron,ioos:station:wmo:42888:1,2021-01-01T10:59:00Z,26.2944,-91.0736,8.0,22.7,11111222
Chevron,ioos:station:wmo:42888:1,2021-01-01T11:09:00Z,26.2945,-91.0735,7.8,22.7,11111222
Chevron,ioos:station:wmo:42888:1,2021-01-01T11:19:00Z,26.2945,-91.0735,7.6,22.7,11111222
Chevron,ioos:station:wmo:42888:1,2021-01-01T11:29:00Z,26.2945,-91.0735,8.0,22.7,11111222
Chevron,ioos:station:wmo:42888:1,2021-01-01T11:39:00Z,26.2945,-91.0735,7.8,22.7,11111222
Chevron,ioos:station:wmo:42888:1,2021-01-01T11:49:00Z,26.2945,-91.0735,7.8,22.7,11111222
Chevron,ioos:station:wmo:42888:1,2021-01-01T11:59:00Z,26.2945,-91.0736,7.7,22.7,11111222
Chevron,ioos:station:wmo:42888:1,2021-01-01T12:09:00Z,26.2945,-91.0736,7.8,22.7,11111222
Chevron,ioos:station:wmo:42888:1,2021-01-01T12:19:00Z,26.2945,-91.0736,7.7,22.6,11111222
Chevron,ioos:station:wmo:42888:1,2021-01-01T12:29:00Z,26.2945,-91.0736,7.7,22.6,11111222
Chevron,ioos:station:wmo:42888:1,2021-01-01T12:39:00Z,26.2945,-91.0736,7.6,22.6,11111222
Chevron,ioos:station:wmo:42888:1,2021-01-01T12:49:00Z,26.2945,-91.0735,7.8,22.6,11111222
Chevron,ioos:station:wmo:42888:1,2021-01-01T12:59:00Z,26.2945,-91.0735,7.9,22.6,11111222
Chevron,ioos:station:wmo:42888:1,2021-01-01T13:09:00Z,26.2945,-91.0735,7.8,22.6,11111222
Chevron,ioos:station:wmo:42888:1,2021-01-01T13:19:00Z,26.2945,-91.0735,7.7,22.6,11111222
Chevron,ioos:station:wmo:42888:1,2021-01-01T13:29:00Z,26.2945,-91.0736,7.7,22.6,11111222
Chevron,ioos:station:wmo:42888:1,2021-01-01T13:39:00Z,26.2945,-91.0735,7.9,22.6,11111222
Chevron,ioos:station:wmo:42888:1,2021-01-01T13:49:00Z,26.2945,-91.0735,7.8,22.6,11111222
Chevron,ioos:station:wmo:42888:1,2021-01-01T13:59:00Z,26.2945,-91.0735,7.9,22.6,11111222
Chevron,ioos:station:wmo:42888:1,2021-01-01T14:09:00Z,26.2945,-91.0735,7.6,22.7,11111222
Chevron,ioos:station:wmo:42888:1,2021-01-01T14:19:00Z,26.2945,-91.0735,7.7,22.8,11111222
Chevron,ioos:station:wmo:42888:1,2021-01-01T14:29:00Z,26.2944,-91.0735,7.5,22.8,11111222
Chevron,ioos:station:wmo:42888:1,2021-01-01T14:39:00Z,26.2944,-91.0736,7.6,22.8,11111222
Chevron,ioos:station:wmo:42888:1,2021-01-01T14:49:00Z,26.2945,-91.0735,7.6,22.8,11111222
Chevron,ioos:station:wmo:42888:1,2021-01-01T14:59:00Z,26.2944,-91.0736,7.8,22.8,11111222
Chevron,ioos:station:wmo:42888:1,2021-01-01T15:09:00Z,26.2944,-91.0735,7.9,22.8,11111222
Chevron,ioos:station:wmo:42888:1,2021-01-01T15:19:00Z,26.2945,-91.0735,7.7,22.8,11111222
Chevron,ioos:station:wmo:42888:1,2021-01-01T15:29:00Z,26.2945,-91.0735,7.8,22.8,11111222
Chevron,ioos:station:wmo:42888:1,2021-01-01T15:39:00Z,26.2944,-91.0735,7.7,22.8,11111222
Chevron,ioos:station:wmo:42888:1,2021-01-01T15:49:00Z,26.2945,-91.0735,7.8,22.8,11111222
Chevron,ioos:station:wmo:42888:1,2021-01-01T15:59:00Z,26.2945,-91.0735,7.7,22.8,11111222
Chevron,ioos:station:wmo:42888:1,2021-01-01T16:09:00Z,26.2945,-91.0736,7.7,22.8,11111222
Chevron,ioos:station:wmo:42888:1,2021-01-01T16:19:00Z,26.2945,-91.0735,7.8,22.8,11111222
Chevron,ioos:station:wmo:42888:1,2021-01-01T16:29:00Z,26.2945,-91.0735,7.5,22.8,11111222
Chevron,ioos:station:wmo:42888:1,2021-01-01T16:39:00Z,26.2945,-91.0735,7.8,22.8,11111222
Chevron,ioos:station:wmo:42888:1,2021-01-01T16:49:00Z,26.2945,-91.0735,7.9,22.8,11111222
Chevron,ioos:station:wmo:42888:1,2021-01-01T16:59:00Z,26.2945,-91.0735,7.8,22.8,11111222
Chevron,ioos:station:wmo:42888:1,2021-01-01T17:09:00Z,26.2944,-91.0736,7.4,22.8,11111222
Chevron,ioos:station:wmo:42888:1,2021-01-01T17:19:00Z,26.2945,-91.0735,7.6,22.8,11111222
Chevron,ioos:station:wmo:42888:1,2021-01-01T17:29:00Z,26.2945,-91.0735,7.6,22.8,11111222
Chevron,ioos:station:wmo:42888:1,2021-01-01T17:39:00Z,26.2945,-91.0735,7.4,22.8,11111222
Chevron,ioos:station:wmo:42888:1,2021-01-01T17:49:00Z,26.2944,-91.0735,7.7,22.8,11111222
Chevron,ioos:station:wmo:42888:1,2021-01-01T17:59:00Z,26.2945,-91.0736,7.6,22.8,11111222
Chevron,ioos:station:wmo:42888:1,2021-01-01T18:09:00Z,26.2945,-91.0736,7.4,22.8,11111222
Chevron,ioos:station:wmo:42888:1,2021-01-01T18:19:00Z,26.2945,-91.0736,7.5,22.8,11111222
Chevron,ioos:station:wmo:42888:1,2021-01-01T18:29:00Z,26.2945,-91.0735,7.5,22.8,11111222
Chevron,ioos:station:wmo:42888:1,2021-01-01T18:39:00Z,26.2945,-91.0735,7.5,22.8,11111222
Chevron,ioos:station:wmo:42888:1,2021-01-01T18:49:00Z,26.2945,-91.0735,7.9,22.8,11111222
Chevron,ioos:station:wmo:42888:1,2021-01-01T18:59:00Z,26.2945,-91.0735,7.3,22.8,11111222
Chevron,ioos:station:wmo:42888:1,2021-01-01T19:09:00Z,26.2945,-91.0738,7.5,22.9,11111222
Chevron,ioos:station:wmo:42888:1,2021-01-01T19:19:00Z,26.2945,-91.0742,7.6,22.9,11111222
Chevron,ioos:station:wmo:42888:1,2021-01-01T19:29:00Z,26.2945,-91.0744,7.7,22.9,11111222
Chevron,ioos:station:wmo:42888:1,2021-01-01T19:39:00Z,26.2945,-91.0748,7.8,22.9,11111222
Chevron,ioos:station:wmo:42888:1,2021-01-01T19:49:00Z,26.2946,-91.0750,7.9,22.9,11111222
Chevron,ioos:station:wmo:42888:1,2021-01-01T19:59:00Z,26.2952,-91.0752,7.5,22.9,11111222
Chevron,ioos:station:wmo:42888:1,2021-01-01T20:09:00Z,26.2951,-91.0753,7.5,22.8,11111222
Chevron,ioos:station:wmo:42888:1,2021-01-01T20:19:00Z,26.2951,-91.0753,7.7,22.8,11111222
Chevron,ioos:station:wmo:42888:1,2021-01-01T20:29:00Z,26.2951,-91.0754,7.9,22.8,11111222
Chevron,ioos:station:wmo:42888:1,2021-01-01T20:39:00Z,26.2951,-91.0754,7.7,22.8,11111222
Chevron,ioos:station:wmo:42888:1,2021-01-01T20:49:00Z,26.2951,-91.0753,7.6,22.8,11111222
Chevron,ioos:station:wmo:42888:1,2021-01-01T20:59:00Z,26.2951,-91.0754,7.6,22.7,11111222
Chevron,ioos:station:wmo:42888:1,2021-01-01T21:09:00Z,26.2951,-91.0754,7.7,22.8,11111222
Chevron,ioos:station:wmo:42888:1,2021-01-01T21:19:00Z,26.2951,-91.0755,7.6,22.7,11111222
Chevron,ioos:station:wmo:42888:1,2021-01-01T21:29:00Z,26.2951,-91.0755,7.6,22.7,11111222
Chevron,ioos:station:wmo:42888:1,2021-01-01T21:39:00Z,26.2951,-91.0754,7.8,22.7,11111222
Chevron,ioos:station:wmo:42888:1,2021-01-01T21:49:00Z,26.2951,-91.0755,7.7,22.7,11111222
Chevron,ioos:station:wmo:42888:1,2021-01-01T21:59:00Z,26.2951,-91.0754,7.9,22.7,11111222
Chevron,ioos:station:wmo:42888:1,2021-01-01T22:09:00Z,26.2951,-91.0755,7.8,22.7,11111222
Chevron,ioos:station:wmo:42888:1,2021-01-01T22:19:00Z,26.2951,-91.0754,7.7,22.7,11111222
Chevron,ioos:station:wmo:42888:1,2021-01-01T22:29:00Z,26.2951,-91.0753,7.8,22.7,11111222
Chevron,ioos:station:wmo:42888:1,2021-01-01T22:39:00Z,26.2951,-91.0754,7.6,22.7,11111222
Chevron,ioos:station:wmo:42888:1,2021-01-01T22:49:00Z,26.2951,-91.0754,7.6,22.7,11111222
Chevron,ioos:station:wmo:42888:1,2021-01-01T22:59:00Z,26.2951,-91.0754,7.7,22.7,11111222
Chevron,ioos:station:wmo:42888:1,2021-01-01T23:09:00Z,26.2951,-91.0754,7.5,22.7,11111222
Chevron,ioos:station:wmo:42888:1,2021-01-01T23:19:00Z,26.2951,-91.0755,7.6,22.7,11111222
Chevron,ioos:station:wmo:42888:1,2021-01-01T23:29:00Z,26.2951,-91.0755,7.5,22.7,11111222
Chevron,ioos:station:wmo:42888:1,2021-01-01T23:39:00Z,26.2951,-91.0755,7.6,22.7,11111222
Chevron,ioos:station:wmo:42888:1,2021-01-01T23:49:00Z,26.2951,-91.0754,7.6,22.7,11111222
Chevron,ioos:station:wmo:42888:1,2021-01-01T23:59:00Z,26.2951,-91.0754,7.5,22.7,11111222
Chevron,ioos:station:wmo:42888:1,2021-01-02T00:09:00Z,26.2951,-91.0755,7.9,22.7,11111222
Chevron,ioos:station:wmo:42888:1,2021-01-02T00:19:00Z,26.2951,-91.0755,7.6,22.7,11111222
Chevron,ioos:station:wmo:42888:1,2021-01-02T00:29:00Z,26.2951,-91.0754,7.9,22.7,11111222
Chevron,ioos:station:wmo:42888:1,2021-01-02T00:39:00Z,26.2957,-91.0760,7.6,22.7,11111222
Chevron,ioos:station:wmo:42888:1,2021-01-02T00:49:00Z,26.2951,-91.0770,7.5,22.7,11111222
Chevron,ioos:station:wmo:42888:1,2021-01-02T00:59:00Z,26.2952,-91.0771,7.6,22.7,11111222
Chevron,ioos:station:wmo:42888:1,2021-01-02T01:09:00Z,26.2951,-91.0771,7.8,22.7,11111222
Chevron,ioos:station:wmo:42888:1,2021-01-02T01:19:00Z,26.2951,-91.0771,7.7,22.6,11111222
Chevron,ioos:station:wmo:42888:1,2021-01-02T01:29:00Z,26.2952,-91.0771,7.8,22.6,11111222
Chevron,ioos:station:wmo:42888:1,2021-01-02T01:39:00Z,26.2952,-91.0771,7.6,22.6,11111222
Chevron,ioos:station:wmo:42888:1,2021-01-02T01:49:00Z,26.2952,-91.0771,7.5,22.6,11111222
Chevron,ioos:station:wmo:42888:1,2021-01-02T01:59:00Z,26.2952,-91.0771,7.4,22.6,11111222
Chevron,ioos:station:wmo:42888:1,2021-01-02T02:09:00Z,26.2952,-91.0771,7.7,22.6,11111222
Chevron,ioos:station:wmo:42888:1,2021-01-02T02:19:00Z,26.2952,-91.0771,8.1,22.6,11111222
Chevron,ioos:station:wmo:42888:1,2021-01-02T02:29:00Z,26.2952,-91.0771,7.8,22.6,11111222
Chevron,ioos:station:wmo:42888:1,2021-01-02T02:39:00Z,26.2952,-91.0771,7.8,22.6,11111222
Chevron,ioos:station:wmo:42888:1,2021-01-02T02:49:00Z,26.2955,-91.0769,7.8,22.6,11111222
Chevron,ioos:station:wmo:42888:1,2021-01-02T02:59:00Z,26.2957,-91.0766,7.9,22.6,11111222
Chevron,ioos:station:wmo:42888:1,2021-01-02T03:09:00Z,26.2957,-91.0763,8.0,22.7,11111222
Chevron,ioos:station:wmo:42888:1,2021-01-02T03:19:00Z,26.2952,-91.0770,8.0,22.7,11111222
Chevron,ioos:station:wmo:42888:1,2021-01-02T03:29:00Z,26.2951,-91.0771,8.0,22.7,11111222
Chevron,ioos:station:wmo:42888:1,2021-01-02T03:39:00Z,26.2952,-91.0771,7.5,22.7,11111222
Chevron,ioos:station:wmo:42888:1,2021-01-02T03:49:00Z,26.2952,-91.0771,7.6,22.7,11111222
Chevron,ioos:station:wmo:42888:1,2021-01-02T03:59:00Z,26.2951,-91.0771,7.8,22.7,11111222
Chevron,ioos:station:wmo:42888:1,2021-01-02T04:09:00Z,26.2951,-91.0771,7.7,22.7,11111222
Chevron,ioos:station:wmo:42888:1,2021-01-02T04:19:00Z,26.2952,-91.0771,7.8,22.7,11111222
Chevron,ioos:station:wmo:42888:1,2021-01-02T04:29:00Z,26.2952,-91.0771,7.9,22.7,11111222
Chevron,ioos:station:wmo:42888:1,2021-01-02T04:39:00Z,26.2952,-91.0771,7.8,22.7,11111222
Chevron,ioos:station:wmo:42888:1,2021-01-02T04:49:00Z,26.2952,-91.0771,7.7,22.7,11111222
Chevron,ioos:station:wmo:42888:1,2021-01-02T04:59:00Z,26.2952,-91.0771,7.9,22.7,11111222
Chevron,ioos:station:wmo:42888:1,2021-01-02T05:09:00Z,26.2952,-91.0770,7.7,22.7,11111222
Chevron,ioos:station:wmo:42888:1,2021-01-02T05:19:00Z,26.2952,-91.0771,7.6,22.7,11111222
Chevron,ioos:station:wmo:42888:1,2021-01-02T05:29:00Z,26.2952,-91.0771,7.8,22.7,11111222
Chevron,ioos:station:wmo:42888:1,2021-01-02T05:39:00Z,26.2952,-91.0771,7.7,22.7,11111222
Chevron,ioos:station:wmo:42888:1,2021-01-02T05:49:00Z,26.2952,-91.0770,7.6,22.7,11111222
Chevron,ioos:station:wmo:42888:1,2021-01-02T05:59:00Z,26.2952,-91.0771,7.6,22.7,11111222
Chevron,ioos:station:wmo:42888:1,2021-01-02T06:09:00Z,26.2951,-91.0771,7.6,22.7,11111222
Chevron,ioos:station:wmo:42888:1,2021-01-02T06:19:00Z,26.2951,-91.0771,7.4,22.7,11111222
Chevron,ioos:station:wmo:42888:1,2021-01-02T06:29:00Z,26.2952,-91.0771,7.7,22.7,11111222
Chevron,ioos:station:wmo:42888:1,2021-01-02T06:39:00Z,26.2951,-91.0771,7.6,22.7,11111222
Chevron,ioos:station:wmo:42888:1,2021-01-02T06:49:00Z,26.2951,-91.0771,7.7,22.7,11111222
Chevron,ioos:station:wmo:42888:1,2021-01-02T06:59:00Z,26.2951,-91.0771,7.5,22.7,11111222
Chevron,ioos:station:wmo:42888:1,2021-01-02T07:09:00Z,26.2951,-91.0771,7.6,22.7,11111222
Chevron,ioos:station:wmo:42888:1,2021-01-02T07:19:00Z,26.2951,-91.0771,7.7,22.7,11111222
Chevron,ioos:station:wmo:42888:1,2021-01-02T07:29:00Z,26.2950,-91.0771,7.7,22.7,11111222
Chevron,ioos:station:wmo:42888:1,2021-01-02T07:39:00Z,26.2952,-91.0771,7.7,22.7,11111222
Chevron,ioos:station:wmo:42888:1,2021-01-02T07:49:00Z,26.2952,-91.0770,8.0,22.7,11111222
Chevron,ioos:station:wmo:42888:1,2021-01-02T07:59:00Z,26.2952,-91.0772,7.7,22.7,11111222
Chevron,ioos:station:wmo:42888:1,2021-01-02T08:09:00Z,26.2952,-91.0771,7.8,22.8,11111222
Chevron,ioos:station:wmo:42888:1,2021-01-02T08:19:00Z,26.2952,-91.0772,7.7,22.8,11111222
Chevron,ioos:station:wmo:42888:1,2021-01-02T08:29:00Z,26.2952,-91.0771,7.7,22.8,11111222
Chevron,ioos:station:wmo:42888:1,2021-01-02T08:39:00Z,26.2952,-91.0771,7.5,22.8,11111222
Chevron,ioos:station:wmo:42888:1,2021-01-02T08:49:00Z,26.2952,-91.0771,7.9,22.8,11111222
Chevron,ioos:station:wmo:42888:1,2021-01-02T08:59:00Z,26.2952,-91.0772,7.5,22.8,11111222
Chevron,ioos:station:wmo:42888:1,2021-01-02T09:09:00Z,26.2952,-91.0769,7.8,22.8,11111222
Chevron,ioos:station:wmo:42888:1,2021-01-02T09:19:00Z,26.2952,-91.0771,7.7,22.8,11111222
Chevron,ioos:station:wmo:42888:1,2021-01-02T09:29:00Z,26.2951,-91.0771,7.9,22.8,11111222
Chevron,ioos:station:wmo:42888:1,2021-01-02T09:39:00Z,26.2952,-91.0771,7.8,22.8,11111222
Chevron,ioos:station:wmo:42888:1,2021-01-02T09:49:00Z,26.2951,-91.0771,7.9,22.8,11111222
Chevron,ioos:station:wmo:42888:1,2021-01-02T09:59:00Z,26.2951,-91.0771,7.8,22.8,11111222
Chevron,ioos:station:wmo:42888:1,2021-01-02T10:09:00Z,26.2952,-91.0770,7.9,22.8,11111222
Chevron,ioos:station:wmo:42888:1,2021-01-02T10:19:00Z,26.2952,-91.0771,7.7,22.8,11111222
Chevron,ioos:station:wmo:42888:1,2021-01-02T10:29:00Z,26.2946,-91.0770,7.8,22.8,11111222
Chevron,ioos:station:wmo:42888:1,2021-01-02T10:39:00Z,26.2942,-91.0764,7.9,22.8,11111222
Chevron,ioos:station:wmo:42888:1,2021-01-02T10:49:00Z,26.2943,-91.0758,7.9,22.8,11111222
Chevron,ioos:station:wmo:42888:1,2021-01-02T10:59:00Z,26.2947,-91.0755,8.1,22.8,11111222
Chevron,ioos:station:wmo:42888:1,2021-01-02T11:09:00Z,26.2943,-91.0760,8.0,22.8,11111222
Chevron,ioos:station:wmo:42888:1,2021-01-02T11:19:00Z,26.2943,-91.0767,7.7,22.8,11111222
Chevron,ioos:station:wmo:42888:1,2021-01-02T11:29:00Z,26.2948,-91.0770,7.6,22.8,11111222
Chevron,ioos:station:wmo:42888:1,2021-01-02T11:39:00Z,26.2955,-91.0769,7.8,22.8,11111222
Chevron,ioos:station:wmo:42888:1,2021-01-02T11:49:00Z,26.2957,-91.0763,8.0,22.7,11111222
Chevron,ioos:station:wmo:42888:1,2021-01-02T11:59:00Z,26.2955,-91.0756,7.9,22.7,11111222
Chevron,ioos:station:wmo:42888:1,2021-01-02T12:09:00Z,26.2950,-91.0754,8.0,22.7,11111222
Chevron,ioos:station:wmo:42888:1,2021-01-02T12:19:00Z,26.2952,-91.0755,8.1,22.7,11111222
Chevron,ioos:station:wmo:42888:1,2021-01-02T12:29:00Z,26.2957,-91.0760,8.0,22.7,11111222
Chevron,ioos:station:wmo:42888:1,2021-01-02T12:39:00Z,26.2957,-91.0766,7.5,22.7,11111222
Chevron,ioos:station:wmo:42888:1,2021-01-02T12:49:00Z,26.2957,-91.0766,7.8,22.7,11111222
Chevron,ioos:station:wmo:42888:1,2021-01-02T12:59:00Z,26.2957,-91.0767,7.9,22.7,11111222
Chevron,ioos:station:wmo:42888:1,2021-01-02T13:09:00Z,26.2956,-91.0767,7.8,22.7,11111222
Chevron,ioos:station:wmo:42888:1,2021-01-02T13:19:00Z,26.2956,-91.0766,7.8,22.7,11111222
Chevron,ioos:station:wmo:42888:1,2021-01-02T13:29:00Z,26.2957,-91.0767,8.1,22.7,11111222
Chevron,ioos:station:wmo:42888:1,2021-01-02T13:39:00Z,26.2957,-91.0767,7.7,22.7,11111222
Chevron,ioos:station:wmo:42888:1,2021-01-02T13:49:00Z,26.2957,-91.0766,8.0,22.6,11111222
Chevron,ioos:station:wmo:42888:1,2021-01-02T13:59:00Z,26.2956,-91.0767,7.7,22.6,11111222
Chevron,ioos:station:wmo:42888:1,2021-01-02T14:09:00Z,26.2957,-91.0767,7.9,22.6,11111222
Chevron,ioos:station:wmo:42888:1,2021-01-02T14:19:00Z,26.2956,-91.0767,8.2,22.6,11111222
Chevron,ioos:station:wmo:42888:1,2021-01-02T14:29:00Z,26.2956,-91.0767,8.1,22.7,11111222
Chevron,ioos:station:wmo:42888:1,2021-01-02T14:39:00Z,26.2956,-91.0766,7.9,22.7,11111222
Chevron,ioos:station:wmo:42888:1,2021-01-02T14:49:00Z,26.2957,-91.0767,7.9,22.7,11111222
Chevron,ioos:station:wmo:42888:1,2021-01-02T14:59:00Z,26.2956,-91.0767,7.9,22.6,11111222
Chevron,ioos:station:wmo:42888:1,2021-01-02T15:09:00Z,26.2956,-91.0767,7.8,22.6,11111222
Chevron,ioos:station:wmo:42888:1,2021-01-02T15:19:00Z,26.2957,-91.0766,8.1,22.6,11111222
Chevron,ioos:station:wmo:42888:1,2021-01-02T15:29:00Z,26.2957,-91.0767,7.8,22.6,11111222
Chevron,ioos:station:wmo:42888:1,2021-01-02T15:39:00Z,26.2957,-91.0767,7.9,22.6,11111222
Chevron,ioos:station:wmo:42888:1,2021-01-02T15:49:00Z,26.2957,-91.0767,8.0,22.6,11111222
Chevron,ioos:station:wmo:42888:1,2021-01-02T15:59:00Z,26.2957,-91.0766,8.1,22.6,11111222
Chevron,ioos:station:wmo:42888:1,2021-01-02T16:09:00Z,26.2957,-91.0767,8.3,22.6,11111222
Chevron,ioos:station:wmo:42888:1,2021-01-02T16:19:00Z,26.2957,-91.0766,8.1,22.6,11111222
Chevron,ioos:station:wmo:42888:1,2021-01-02T16:29:00Z,26.2957,-91.0767,8.1,22.5,11111222
Chevron,ioos:station:wmo:42888:1,2021-01-02T16:39:00Z,26.2957,-91.0767,8.7,22.4,11111222
Chevron,ioos:station:wmo:42888:1,2021-01-02T16:49:00Z,26.2956,-91.0767,8.5,22.4,11111222
Chevron,ioos:station:wmo:42888:1,2021-01-02T16:59:00Z,26.2957,-91.0766,8.5,22.4,11111222
Chevron,ioos:station:wmo:42888:1,2021-01-02T17:09:00Z,26.2957,-91.0767,8.4,22.4,11111222
Chevron,ioos:station:wmo:42888:1,2021-01-02T17:19:00Z,26.2957,-91.0766,8.4,22.4,11111222
Chevron,ioos:station:wmo:42888:1,2021-01-02T17:29:00Z,26.2956,-91.0767,8.6,22.4,11111222
Chevron,ioos:station:wmo:42888:1,2021-01-02T17:39:00Z,26.2957,-91.0766,8.4,22.4,11111222
Chevron,ioos:station:wmo:42888:1,2021-01-02T17:49:00Z,26.2957,-91.0767,8.5,22.4,11111222
Chevron,ioos:station:wmo:42888:1,2021-01-02T17:59:00Z,26.2957,-91.0766,8.6,22.4,11111222
Chevron,ioos:station:wmo:42888:1,2021-01-02T18:09:00Z,26.2956,-91.0767,8.2,22.4,11111222
Chevron,ioos:station:wmo:42888:1,2021-01-02T18:24:00Z,26.2957,-91.0763,8.6,22.4,11111222
Chevron,ioos:station:wmo:42888:1,2021-01-02T18:34:00Z,26.2957,-91.0763,8.4,22.4,11111222
Chevron,ioos:station:wmo:42888:1,2021-01-02T18:44:00Z,26.2957,-91.0763,8.3,22.4,11111222
Chevron,ioos:station:wmo:42888:1,2021-01-02T18:54:00Z,26.2957,-91.0763,8.6,22.5,11111222
Chevron,ioos:station:wmo:42888:1,2021-01-02T19:04:00Z,26.2957,-91.0763,8.4,22.5,11111222
Chevron,ioos:station:wmo:42888:1,2021-01-02T19:14:00Z,26.2957,-91.0763,8.3,22.5,11111222
Chevron,ioos:station:wmo:42888:1,2021-01-02T19:24:00Z,26.2957,-91.0763,8.5,22.5,11111222
Chevron,ioos:station:wmo:42888:1,2021-01-02T19:34:00Z,26.2958,-91.0763,8.2,22.5,11111222
Chevron,ioos:station:wmo:42888:1,2021-01-02T19:44:00Z,26.2957,-91.0763,8.4,22.5,11111222
Chevron,ioos:station:wmo:42888:1,2021-01-02T19:54:00Z,26.2957,-91.0763,8.4,22.5,11111222
Chevron,ioos:station:wmo:42888:1,2021-01-02T20:04:00Z,26.2957,-91.0764,8.3,22.4,11111222
Chevron,ioos:station:wmo:42888:1,2021-01-02T20:14:00Z,26.2957,-91.0763,8.3,22.5,11111222